Weather History for Ann Arbor, MI

Change the Weather History Date:

Saturday, October 5, 2013

  Actual Average Record
Temperature  
Mean Temperature 68 °F -  
Max Temperature 73 °F 63 °F 86 °F (2007)
Min Temperature 64 °F 36 °F 21 °F (2004)
Cooling Degree Days 4    
Growing Degree Days 18 (Base 50)    
Moisture  
Dew Point 65 °F    
Average Humidity 92    
Maximum Humidity 100    
Minimum Humidity 78    
Precipitation  
Precipitation 0.17 in - - ()
Sea Level Pressure  
Sea Level Pressure 29.98 in    
Wind  
Wind Speed 4 mph (SE)    
Max Wind Speed 10 mph    
Max Gust Speed -    
Visibility 8 miles    
Events Rain , Thunderstorm    
Averages and records for this station are not official NWS values.
T = Trace of Precipitation, MM = Missing Value Source: NWS Daily Summary

Daily Weather History Graph

Daily Weather History Graph

Search for Another Location

Airport:

Trip Planner

Search our weather history database for the weather conditions in past years. The results will help you decide how hot, cold, wet, or windy it might be!

Date:

Astronomy

Oct. 05, 2013 Rise Set
Actual Time 7:36 AM EDT 7:09 PM EDT
Civil Twilight 7:08 AM EDT 7:37 PM EDT
Nautical Twilight 6:36 AM EDT 8:09 PM EDT
Astronomical Twilight 6:03 AM EDT 8:42 PM EDT
Moon 8:16 AM EDT (10/5) 7:25 PM EDT (10/5)
Length of Visible Light 12h 28m
Length of Day
11h 32m
New Moon, 0% of the Moon is Illuminated
Oct 5
New Moon
Oct 11
First Quarter
Oct 18
Full
Oct 26
Last Quarter
Nov 3
New

Hourly Weather History & Observations

Time (EDT) Temp. Dew Point Humidity Pressure Visibility Wind Dir Wind Speed Gust Speed Precip Events Conditions
12:53 AM 64.0 °F 63.0 °F 96% 30.02 in 10.0 mi WSW 3.5 mph - N/A   Clear
1:53 AM 64.9 °F 63.0 °F 93% 30.02 in 10.0 mi Calm Calm - N/A   Clear
2:53 AM 68.0 °F 64.9 °F 90% 30.02 in 10.0 mi SW 4.6 mph - N/A   Mostly Cloudy
3:21 AM 68.0 °F 64.4 °F 88% 30.02 in 10.0 mi South 3.5 mph - N/A Thunderstorm Mostly Cloudy
3:53 AM 66.9 °F 64.0 °F 90% 30.01 in 10.0 mi South 3.5 mph - N/A Thunderstorm Mostly Cloudy
4:02 AM 66.2 °F 64.4 °F 94% 30.02 in 10.0 mi Calm Calm - N/A   Mostly Cloudy
4:53 AM 64.9 °F 63.0 °F 93% 30.00 in 10.0 mi South 3.5 mph - 0.00 in Rain Light Rain
5:18 AM 66.2 °F 64.4 °F 94% 30.01 in 10.0 mi Calm Calm - 0.01 in Thunderstorm Overcast
5:33 AM 66.2 °F 64.4 °F 94% 30.01 in 8.0 mi Calm Calm - 0.02 in Rain Light Rain
5:53 AM 66.9 °F 64.9 °F 93% 30.01 in 10.0 mi NNE 10.4 mph - 0.02 in Thunderstorm Overcast
6:08 AM 66.2 °F 64.4 °F 94% 30.05 in 8.0 mi NNW 10.4 mph - 0.02 in Rain , Thunderstorm Light Thunderstorms and Rain
6:15 AM 64.4 °F 62.6 °F 94% 30.03 in 3.0 mi NNE 10.4 mph - 0.09 in Rain , Thunderstorm Heavy Thunderstorms and Rain
6:30 AM 64.4 °F 62.6 °F 94% 30.04 in 10.0 mi ENE 4.6 mph - 0.10 in Rain , Thunderstorm Light Rain
6:41 AM 64.4 °F 62.6 °F 94% 30.04 in 10.0 mi North 5.8 mph - 0.10 in   Overcast
6:53 AM 64.9 °F 64.0 °F 97% 30.03 in 10.0 mi Calm Calm - 0.10 in   Overcast
7:21 AM 64.4 °F 64.4 °F 100% 30.04 in 9.0 mi ESE 3.5 mph - 0.01 in Rain Light Rain
7:41 AM 64.4 °F 64.4 °F 100% 30.04 in 10.0 mi Calm Calm - 0.01 in   Overcast
7:53 AM 64.9 °F 64.0 °F 97% 30.03 in 9.0 mi Calm Calm - 0.01 in   Mostly Cloudy
8:08 AM 64.4 °F 64.4 °F 100% 30.04 in 8.0 mi Variable 3.5 mph - N/A   Mostly Cloudy
8:53 AM 66.0 °F 64.9 °F 96% 30.02 in 5.0 mi ENE 3.5 mph - N/A   Overcast
9:53 AM 66.9 °F 64.9 °F 93% 30.01 in 7.0 mi ESE 8.1 mph - N/A   Overcast
10:12 AM 68.0 °F 66.2 °F 94% 30.02 in 7.0 mi East 5.8 mph - N/A   Overcast
10:53 AM 69.1 °F 66.0 °F 90% 30.01 in 7.0 mi East 4.6 mph - N/A   Overcast
11:53 AM 71.1 °F 66.9 °F 87% 30.01 in 10.0 mi SSE 5.8 mph - N/A   Overcast
12:53 PM 72.0 °F 66.9 °F 84% 29.99 in 10.0 mi SSE 6.9 mph - N/A   Overcast
1:53 PM 72.0 °F 66.9 °F 84% 29.97 in 7.0 mi SSE 8.1 mph - N/A   Overcast
2:53 PM 73.9 °F 68.0 °F 82% 29.95 in 7.0 mi South 6.9 mph - N/A   Overcast
3:53 PM 73.0 °F 68.0 °F 84% 29.94 in 10.0 mi SSW 8.1 mph - N/A   Overcast
4:22 PM 73.4 °F 66.2 °F 78% 29.93 in 10.0 mi South 8.1 mph - N/A   Overcast
4:53 PM 73.0 °F 66.9 °F 81% 29.92 in 10.0 mi South 9.2 mph - N/A   Overcast
5:53 PM 73.0 °F 66.0 °F 79% 29.92 in 10.0 mi South 8.1 mph - N/A   Scattered Clouds
6:53 PM 70.0 °F 66.0 °F 87% 29.91 in 10.0 mi SE 3.5 mph - N/A   Clear
7:53 PM 69.1 °F 66.0 °F 90% 29.91 in 10.0 mi ESE 5.8 mph - N/A   Partly Cloudy
8:53 PM 68.0 °F 66.0 °F 93% 29.92 in 10.0 mi SE 4.6 mph - N/A   Partly Cloudy
9:53 PM 68.0 °F 66.0 °F 93% 29.90 in 4.0 mi East 4.6 mph - 0.03 in Rain Rain
10:03 PM 68.0 °F 66.2 °F 94% 29.91 in 6.0 mi East 4.6 mph - 0.00 in   Overcast
10:35 PM 68.0 °F 66.2 °F 94% 29.91 in 5.0 mi ESE 6.9 mph - 0.00 in Rain Light Rain
10:53 PM 68.0 °F 66.9 °F 96% 29.89 in 4.0 mi ESE 6.9 mph - 0.01 in   Overcast
11:07 PM 68.0 °F 66.2 °F 94% 29.90 in 2.5 mi ESE 8.1 mph - N/A   Overcast
11:22 PM 68.0 °F 66.2 °F 94% 29.89 in 3.0 mi ESE 6.9 mph - N/A   Overcast
11:53 PM 69.1 °F 66.9 °F 93% 29.87 in 4.0 mi SE 5.8 mph - N/A   Overcast